| time (UTC) | temp F | wind direction | speed MPH | gust MPH | rain 1hr in | rain 24hr in | rain mn in | humidity % | barometer mb |
| 20260903092031 | 67 | 59 | 2.0 | 5.0 | 0.00 | 0.00 | 0.00 | 78 | 1009.7 |
| 20260903091530 | 67 | 53 | 1.0 | 3.0 | 0.00 | 0.00 | 0.00 | 78 | 1009.7 |
| 20260903091036 | 67 | 51 | 0.0 | 3.0 | 0.00 | 0.00 | 0.00 | 79 | 1009.7 |
| 20260903090531 | 67 | 51 | 1.0 | 3.0 | 0.00 | 0.00 | 0.00 | 78 | 1009.7 |
| 20260903090033 | 66 | 42 | 0.0 | 4.0 | 0.00 | 0.00 | 0.00 | 79 | 1009.8 |
| 20260903085529 | 66 | 63 | 2.0 | 4.0 | 0.00 | 0.00 | 0.00 | 79 | 1009.7 |
| 20260903085029 | 66 | 76 | 2.0 | 4.0 | 0.00 | 0.00 | 0.00 | 79 | 1009.7 |
| 20260903084533 | 67 | 107 | 2.0 | 4.0 | 0.00 | 0.00 | 0.00 | 79 | 1009.7 |
| 20260903084028 | 67 | 65 | 2.0 | 4.0 | 0.00 | 0.00 | 0.00 | 79 | 1009.8 |
| 20260903083528 | 67 | 80 | 2.0 | 4.0 | 0.00 | 0.00 | 0.00 | 79 | 1010.0 |
| 20260903083028 | 67 | 80 | 2.0 | 4.0 | 0.00 | 0.00 | 0.00 | 79 | 1009.9 |
| 20260903082526 | 67 | 69 | 2.0 | 4.0 | 0.00 | 0.00 | 0.00 | 79 | 1010.0 |
| 20260903082026 | 67 | 64 | 2.0 | 5.0 | 0.00 | 0.00 | 0.00 | 79 | 1010.1 |
| 20260903081526 | 67 | 55 | 2.0 | 5.0 | 0.00 | 0.00 | 0.00 | 79 | 1010.0 |
| 20260903081024 | 67 | 71 | 2.0 | 6.0 | 0.00 | 0.00 | 0.00 | 79 | 1010.1 |
| 20260903080524 | 66 | 96 | 3.0 | 4.0 | 0.00 | 0.00 | 0.00 | 80 | 1010.2 |
| 20260903080037 | 67 | 71 | 1.0 | 3.0 | 0.00 | 0.00 | 0.00 | 79 | 1010.3 |
| 20260903075522 | 67 | 64 | 1.0 | 3.0 | 0.00 | 0.00 | 0.00 | 79 | 1010.4 |
| 20260903075022 | 67 | 63 | 1.0 | 3.0 | 0.00 | 0.00 | 0.00 | 79 | 1010.5 |
| 20260903074521 | 67 | 64 | 1.0 | 4.0 | 0.00 | 0.00 | 0.00 | 79 | 1010.5 |
| 20260903074021 | 67 | 63 | 1.0 | 6.0 | 0.00 | 0.00 | 0.00 | 79 | 1010.5 |
| 20260903073520 | 67 | 103 | 2.0 | 6.0 | 0.00 | 0.00 | 0.00 | 79 | 1010.5 |
| 20260903073024 | 67 | 63 | 2.0 | 4.0 | 0.00 | 0.00 | 0.00 | 79 | 1010.5 |
| 20260903072520 | 67 | 57 | 2.0 | 6.0 | 0.00 | 0.00 | 0.00 | 79 | 1010.4 |
| 20260903072021 | 67 | 95 | 2.0 | 4.0 | 0.00 | 0.00 | 0.00 | 79 | 1010.4 |
| 20260903071520 | 67 | 86 | 2.0 | 5.0 | 0.00 | 0.00 | 0.00 | 79 | 1010.3 |
| 20260903071023 | 67 | 72 | 2.0 | 5.0 | 0.00 | 0.00 | 0.00 | 79 | 1010.5 |
| 20260903070517 | 67 | 81 | 2.0 | 4.0 | 0.00 | 0.00 | 0.00 | 79 | 1010.5 |
| 20260903070019 | 67 | 63 | 1.0 | 4.0 | 0.00 | 0.00 | 0.00 | 79 | 1010.6 |
| 20260903065517 | 67 | 60 | 2.0 | 4.0 | 0.00 | 0.00 | 0.00 | 79 | 1010.7 |
| 20260903065017 | 67 | 96 | 2.0 | 5.0 | 0.00 | 0.00 | 0.00 | 79 | 1010.6 |
| 20260903064517 | 67 | 68 | 3.0 | 5.0 | 0.00 | 0.00 | 0.00 | 79 | 1010.7 |
| 20260903064016 | 67 | 92 | 2.0 | 4.0 | 0.00 | 0.00 | 0.00 | 79 | 1010.7 |
| 20260903063515 | 67 | 77 | 1.0 | 4.0 | 0.00 | 0.00 | 0.00 | 79 | 1010.9 |
| 20260903063015 | 67 | 81 | 2.0 | 4.0 | 0.00 | 0.00 | 0.00 | 79 | 1011.0 |
| 20260903062515 | 67 | 84 | 1.0 | 4.0 | 0.00 | 0.00 | 0.00 | 79 | 1011.1 |
| 20260903062015 | 67 | 86 | 1.0 | 4.0 | 0.00 | 0.00 | 0.00 | 79 | 1011.1 |
| 20260903061516 | 67 | 87 | 2.0 | 4.0 | 0.00 | 0.00 | 0.00 | 79 | 1011.1 |
| 20260903061116 | 67 | 87 | 2.0 | 4.0 | 0.00 | 0.00 | 0.00 | 79 | 1011.2 |
| 20260903060513 | 67 | 72 | 1.0 | 6.0 | 0.00 | 0.00 | 0.00 | 79 | 1011.1 |
| 20260903060012 | 67 | 77 | 1.0 | 6.0 | 0.00 | 0.00 | 0.00 | 78 | 1011.1 |
| 20260903055512 | 67 | 91 | 2.0 | 6.0 | 0.00 | 0.00 | 0.00 | 78 | 1011.0 |
| 20260903055010 | 68 | 58 | 2.0 | 5.0 | 0.00 | 0.00 | 0.00 | 78 | 1011.0 |
| 20260903054512 | 68 | 68 | 3.0 | 6.0 | 0.00 | 0.00 | 0.00 | 77 | 1011.0 |
| 20260903054009 | 68 | 83 | 2.0 | 6.0 | 0.00 | 0.00 | 0.00 | 77 | 1010.9 |
| 20260903053509 | 68 | 88 | 2.0 | 6.0 | 0.00 | 0.00 | 0.00 | 76 | 1010.9 |
| 20260903053007 | 68 | 81 | 3.0 | 6.0 | 0.00 | 0.00 | 0.00 | 76 | 1011.0 |
| 20260903052506 | 68 | 71 | 2.0 | 5.0 | 0.00 | 0.00 | 0.00 | 75 | 1011.1 |
| 20260903052007 | 69 | 78 | 3.0 | 5.0 | 0.00 | 0.00 | 0.00 | 74 | 1011.2 |
| 20260903051507 | 69 | 74 | 2.0 | 5.0 | 0.00 | 0.00 | 0.00 | 74 | 1011.3 |
| 20260903051004 | 69 | 52 | 2.0 | 4.0 | 0.00 | 0.00 | 0.00 | 74 | 1011.3 |
| 20260903050602 | 69 | 88 | 1.0 | 4.0 | 0.00 | 0.00 | 0.00 | 73 | 1011.2 |
| 20260903050005 | 69 | 71 | 2.0 | 4.0 | 0.00 | 0.00 | 0.00 | 72 | 1011.3 |
| 20260903045502 | 69 | 48 | 1.0 | 4.0 | 0.00 | 0.00 | 0.00 | 72 | 1011.4 |
| 20260903045002 | 69 | 42 | 1.0 | 4.0 | 0.00 | 0.00 | 0.00 | 71 | 1011.3 |
| 20260903044505 | 70 | 65 | 1.0 | 4.0 | 0.00 | 0.00 | 0.00 | 71 | 1011.4 |
| 20260903044001 | 70 | 32 | 1.0 | 4.0 | 0.00 | 0.00 | 0.00 | 70 | 1011.4 |
| 20260903043501 | 70 | 49 | 1.0 | 4.0 | 0.00 | 0.00 | 0.00 | 70 | 1011.5 |
| 20260903043001 | 70 | 59 | 1.0 | 4.0 | 0.00 | 0.00 | 0.00 | 69 | 1011.5 |
| 20260903042500 | 70 | 47 | 1.0 | 4.0 | 0.00 | 0.00 | 0.00 | 69 | 1011.5 |
| 20260903042002 | 71 | 44 | 1.0 | 4.0 | 0.00 | 0.00 | 0.00 | 68 | 1011.5 |
| 20260903041612 | 71 | 37 | 0.0 | 3.0 | 0.00 | 0.00 | 0.00 | 68 | 1011.4 |
| 20260903041100 | 71 | 38 | 0.0 | 4.0 | 0.00 | 0.00 | 0.00 | 67 | 1011.4 |
| 20260903040600 | 71 | 35 | 2.0 | 4.0 | 0.00 | 0.00 | 0.00 | 67 | 1011.5 |
| 20260903040120 | 72 | 47 | 1.0 | 5.0 | 0.00 | 0.00 | 0.00 | 66 | 1011.5 |
| 20260903035559 | 72 | 51 | 2.0 | 5.0 | 0.00 | 0.00 | 0.00 | 66 | 1011.5 |
| 20260903035059 | 72 | 10 | 1.0 | 3.0 | 0.00 | 0.00 | 0.00 | 66 | 1011.6 |
| 20260903034603 | 72 | 10 | 1.0 | 4.0 | 0.00 | 0.00 | 0.00 | 65 | 1011.7 |
| 20260903034102 | 72 | 43 | 1.0 | 4.0 | 0.00 | 0.00 | 0.00 | 65 | 1011.8 |
| 20260903033559 | 73 | 45 | 1.0 | 4.0 | 0.00 | 0.00 | 0.00 | 65 | 1011.8 |
| 20260903033059 | 73 | 96 | 2.0 | 5.0 | 0.00 | 0.00 | 0.00 | 63 | 1011.9 |
| 20260903032559 | 73 | 78 | 2.0 | 5.0 | 0.00 | 0.00 | 0.00 | 63 | 1011.8 |
| 20260903032058 | 73 | 103 | 2.0 | 6.0 | 0.00 | 0.00 | 0.00 | 62 | 1011.9 |
| 20260903031601 | 73 | 85 | 2.0 | 5.0 | 0.00 | 0.00 | 0.00 | 63 | 1011.8 |
| 20260903031101 | 73 | 99 | 2.0 | 5.0 | 0.00 | 0.00 | 0.00 | 62 | 1011.9 |
| 20260903030558 | 74 | 63 | 2.0 | 5.0 | 0.00 | 0.00 | 0.00 | 62 | 1011.9 |
| 20260903030100 | 74 | 56 | 2.0 | 5.0 | 0.00 | 0.00 | 0.00 | 62 | 1011.9 |
| 20260903025557 | 74 | 65 | 2.0 | 5.0 | 0.00 | 0.00 | 0.00 | 62 | 1011.9 |
| 20260903025057 | 74 | 42 | 2.0 | 4.0 | 0.00 | 0.00 | 0.00 | 62 | 1011.9 |
| 20260903024558 | 74 | 64 | 2.0 | 4.0 | 0.00 | 0.00 | 0.00 | 62 | 1011.8 |
| 20260903024057 | 74 | 96 | 2.0 | 4.0 | 0.00 | 0.00 | 0.00 | 62 | 1011.9 |
| 20260903023557 | 75 | 99 | 2.0 | 6.0 | 0.00 | 0.00 | 0.00 | 61 | 1011.9 |
| 20260903023101 | 75 | 58 | 2.0 | 6.0 | 0.00 | 0.00 | 0.00 | 61 | 1011.9 |
| 20260903022601 | 75 | 69 | 3.0 | 5.0 | 0.00 | 0.00 | 0.00 | 61 | 1011.8 |
| 20260903022057 | 75 | 67 | 2.0 | 6.0 | 0.00 | 0.00 | 0.00 | 61 | 1011.9 |
| 20260903021559 | 75 | 97 | 2.0 | 5.0 | 0.00 | 0.00 | 0.00 | 60 | 1011.9 |
| 20260903021057 | 76 | 72 | 2.0 | 5.0 | 0.00 | 0.00 | 0.00 | 60 | 1011.8 |
| 20260903020556 | 76 | 65 | 2.0 | 5.0 | 0.00 | 0.00 | 0.00 | 60 | 1011.7 |
| 20260903020056 | 76 | 101 | 2.0 | 5.0 | 0.00 | 0.00 | 0.00 | 59 | 1011.5 |
| 20260903015556 | 76 | 90 | 3.0 | 5.0 | 0.00 | 0.00 | 0.00 | 59 | 1011.5 |
| 20260903015056 | 77 | 82 | 3.0 | 5.0 | 0.00 | 0.00 | 0.00 | 58 | 1011.5 |
| 20260903014556 | 77 | 55 | 1.0 | 5.0 | 0.00 | 0.00 | 0.00 | 57 | 1011.6 |
| 20260903014056 | 77 | 67 | 2.0 | 4.0 | 0.00 | 0.00 | 0.00 | 57 | 1011.5 |
| 20260903013556 | 77 | 64 | 1.0 | 5.0 | 0.00 | 0.00 | 0.00 | 57 | 1011.5 |
| 20260903013056 | 77 | 80 | 1.0 | 5.0 | 0.00 | 0.00 | 0.00 | 56 | 1011.5 |
| 20260903012555 | 78 | 84 | 2.0 | 6.0 | 0.00 | 0.00 | 0.00 | 57 | 1011.5 |
| 20260903012057 | 78 | 86 | 3.0 | 6.0 | 0.00 | 0.00 | 0.00 | 57 | 1011.4 |
| 20260903011556 | 78 | 82 | 2.0 | 6.0 | 0.00 | 0.00 | 0.00 | 57 | 1011.3 |
| 20260903011058 | 78 | 92 | 2.0 | 6.0 | 0.00 | 0.00 | 0.00 | 56 | 1011.3 |
| 20260903010554 | 78 | 86 | 2.0 | 5.0 | 0.00 | 0.00 | 0.00 | 55 | 1011.3 |
| 20260903010054 | 79 | 55 | 3.0 | 5.0 | 0.00 | 0.00 | 0.00 | 55 | 1011.4 |
| 20260903005554 | 79 | 83 | 2.0 | 6.0 | 0.00 | 0.00 | 0.00 | 55 | 1011.3 |
| 20260903005057 | 79 | 65 | 2.0 | 6.0 | 0.00 | 0.00 | 0.00 | 55 | 1011.2 |
| 20260903004557 | 79 | 67 | 2.0 | 6.0 | 0.00 | 0.00 | 0.00 | 54 | 1011.2 |
| 20260903004054 | 79 | 99 | 2.0 | 4.0 | 0.00 | 0.00 | 0.00 | 54 | 1011.2 |
| 20260903003554 | 79 | 120 | 3.0 | 5.0 | 0.00 | 0.00 | 0.00 | 54 | 1011.2 |
| 20260903003053 | 79 | 87 | 2.0 | 7.0 | 0.00 | 0.00 | 0.00 | 53 | 1011.1 |
| 20260903002554 | 80 | 20 | 3.0 | 7.0 | 0.00 | 0.00 | 0.00 | 53 | 1011.1 |
| 20260903002054 | 80 | 64 | 2.0 | 8.0 | 0.00 | 0.00 | 0.00 | 53 | 1011.1 |
| 20260903001603 | 80 | 56 | 4.0 | 8.0 | 0.00 | 0.00 | 0.00 | 53 | 1011.1 |
| 20260903001053 | 80 | 105 | 4.0 | 8.0 | 0.00 | 0.00 | 0.00 | 53 | 1011.2 |
| 20260903000553 | 80 | 115 | 4.0 | 8.0 | 0.00 | 0.00 | 0.00 | 52 | 1011.1 |
| 20260903000052 | 81 | 64 | 3.0 | 8.0 | 0.00 | 0.00 | 0.00 | 52 | 1011.1 |
| 20260902235552 | 81 | 101 | 4.0 | 8.0 | 0.00 | 0.00 | 0.00 | 52 | 1011.1 |
| 20260902235051 | 81 | 95 | 5.0 | 7.0 | 0.00 | 0.00 | 0.00 | 51 | 1011.2 |
| 20260902234551 | 81 | 98 | 3.0 | 7.0 | 0.00 | 0.00 | 0.00 | 50 | 1011.2 |
| 20260902234053 | 81 | 100 | 4.0 | 9.0 | 0.00 | 0.00 | 0.00 | 50 | 1011.1 |
| 20260902233551 | 81 | 105 | 4.0 | 9.0 | 0.00 | 0.00 | 0.00 | 50 | 1011.2 |
| 20260902233051 | 82 | 94 | 3.0 | 9.0 | 0.00 | 0.00 | 0.00 | 50 | 1011.2 |
| 20260902232550 | 82 | 80 | 3.0 | 9.0 | 0.00 | 0.00 | 0.00 | 49 | 1011.2 |
| 20260902232050 | 82 | 105 | 3.0 | 8.0 | 0.00 | 0.00 | 0.00 | 48 | 1011.2 |
| 20260902231550 | 82 | 82 | 3.0 | 7.0 | 0.00 | 0.00 | 0.00 | 48 | 1011.2 |
| 20260902231051 | 82 | 71 | 1.0 | 6.0 | 0.00 | 0.00 | 0.00 | 48 | 1011.2 |
| 20260902230551 | 82 | 45 | 2.0 | 7.0 | 0.00 | 0.00 | 0.00 | 48 | 1011.1 |
| 20260902230051 | 82 | 100 | 4.0 | 7.0 | 0.00 | 0.00 | 0.00 | 48 | 1011.2 |
| 20260902225549 | 82 | 65 | 3.0 | 8.0 | 0.00 | 0.00 | 0.00 | 48 | 1011.2 |
| 20260902225049 | 82 | 73 | 2.0 | 7.0 | 0.00 | 0.00 | 0.00 | 48 | 1011.2 |
| 20260902224555 | 82 | 112 | 4.0 | 7.0 | 0.00 | 0.00 | 0.00 | 47 | 1011.1 |
| 20260902224049 | 82 | 60 | 4.0 | 7.0 | 0.00 | 0.00 | 0.00 | 47 | 1011.2 |
| 20260902223549 | 82 | 74 | 3.0 | 8.0 | 0.00 | 0.00 | 0.00 | 47 | 1011.1 |
| 20260902223050 | 82 | 93 | 2.0 | 6.0 | 0.00 | 0.00 | 0.00 | 46 | 1011.1 |
| 20260902222547 | 82 | 82 | 3.0 | 6.0 | 0.00 | 0.00 | 0.00 | 47 | 1011.1 |
| 20260902222048 | 82 | 90 | 4.0 | 7.0 | 0.00 | 0.00 | 0.00 | 47 | 1011.2 |
| 20260902221551 | 82 | 61 | 3.0 | 7.0 | 0.00 | 0.00 | 0.00 | 46 | 1011.3 |
| 20260902221045 | 82 | 65 | 3.0 | 8.0 | 0.00 | 0.00 | 0.00 | 47 | 1011.4 |
| 20260902220545 | 82 | 71 | 3.0 | 8.0 | 0.00 | 0.00 | 0.00 | 46 | 1011.4 |
| 20260902220053 | 82 | 92 | 4.0 | 8.0 | 0.00 | 0.00 | 0.00 | 47 | 1011.4 |
| 20260902215544 | 82 | 86 | 2.0 | 5.0 | 0.00 | 0.00 | 0.00 | 46 | 1011.4 |
| 20260902215144 | 82 | 44 | 2.0 | 7.0 | 0.00 | 0.00 | 0.00 | 45 | 1011.5 |
| 20260902214543 | 83 | 110 | 3.0 | 10.0 | 0.00 | 0.00 | 0.00 | 44 | 1011.5 |
| 20260902214043 | 83 | 15 | 4.0 | 10.0 | 0.00 | 0.00 | 0.00 | 45 | 1011.6 |
| 20260902213542 | 83 | 19 | 3.0 | 7.0 | 0.00 | 0.00 | 0.00 | 44 | 1011.7 |
| 20260902213047 | 83 | 86 | 3.0 | 8.0 | 0.00 | 0.00 | 0.00 | 44 | 1011.8 |
| 20260902212542 | 83 | 50 | 3.0 | 8.0 | 0.00 | 0.00 | 0.00 | 45 | 1011.8 |
| 20260902212042 | 83 | 9 | 2.0 | 5.0 | 0.00 | 0.00 | 0.00 | 44 | 1011.8 |
| 20260902211542 | 82 | 78 | 2.0 | 7.0 | 0.00 | 0.00 | 0.00 | 45 | 1011.8 |
| 20260902211040 | 83 | 44 | 3.0 | 11.0 | 0.00 | 0.00 | 0.00 | 44 | 1011.9 |
| 20260902210539 | 83 | 5 | 4.0 | 11.0 | 0.00 | 0.00 | 0.00 | 44 | 1011.9 |
| 20260902210039 | 83 | 35 | 2.0 | 6.0 | 0.00 | 0.00 | 0.00 | 46 | 1012.0 |
| 20260902205538 | 83 | 86 | 3.0 | 7.0 | 0.00 | 0.00 | 0.00 | 45 | 1012.1 |
| 20260902205038 | 83 | 55 | 4.0 | 7.0 | 0.00 | 0.00 | 0.00 | 45 | 1012.1 |
| 20260902204538 | 83 | 82 | 2.0 | 9.0 | 0.00 | 0.00 | 0.00 | 45 | 1012.1 |
| 20260902204038 | 83 | 84 | 4.0 | 9.0 | 0.00 | 0.00 | 0.00 | 44 | 1012.1 |
| 20260902203538 | 84 | 46 | 3.0 | 7.0 | 0.00 | 0.00 | 0.00 | 45 | 1012.0 |
| 20260902203037 | 84 | 141 | 1.0 | 5.0 | 0.00 | 0.00 | 0.00 | 45 | 1012.1 |
| 20260902202537 | 83 | 78 | 2.0 | 7.0 | 0.00 | 0.00 | 0.00 | 45 | 1012.1 |
| 20260902202039 | 83 | 70 | 3.0 | 7.0 | 0.00 | 0.00 | 0.00 | 45 | 1012.2 |
| 20260902201535 | 84 | 330 | 1.0 | 5.0 | 0.00 | 0.00 | 0.00 | 44 | 1012.3 |
| 20260902201036 | 83 | 69 | 2.0 | 8.0 | 0.00 | 0.00 | 0.00 | 45 | 1012.3 |
| 20260902200534 | 83 | 23 | 3.0 | 9.0 | 0.00 | 0.00 | 0.00 | 44 | 1012.3 |
| 20260902200033 | 83 | 53 | 4.0 | 9.0 | 0.00 | 0.00 | 0.00 | 45 | 1012.3 |
| 20260902195532 | 83 | 71 | 5.0 | 9.0 | 0.00 | 0.00 | 0.00 | 44 | 1012.3 |
| 20260902195030 | 83 | 30 | 1.0 | 8.0 | 0.00 | 0.00 | 0.00 | 44 | 1012.4 |
| 20260902194536 | 82 | 11 | 4.0 | 8.0 | 0.00 | 0.00 | 0.00 | 46 | 1012.5 |
| 20260902194029 | 82 | 28 | 2.0 | 6.0 | 0.00 | 0.00 | 0.00 | 46 | 1012.6 |
| 20260902193527 | 82 | 112 | 2.0 | 6.0 | 0.00 | 0.00 | 0.00 | 48 | 1012.7 |
| 20260902193028 | 82 | 51 | 2.0 | 7.0 | 0.00 | 0.00 | 0.00 | 48 | 1012.7 |
| 20260902192526 | 82 | 63 | 3.0 | 6.0 | 0.00 | 0.00 | 0.00 | 48 | 1012.7 |
| 20260902192026 | 81 | 69 | 1.0 | 6.0 | 0.00 | 0.00 | 0.00 | 47 | 1012.7 |
| 20260902191525 | 81 | 108 | 3.0 | 6.0 | 0.00 | 0.00 | 0.00 | 48 | 1012.8 |
| 20260902191028 | 81 | 5 | 1.0 | 4.0 | 0.00 | 0.00 | 0.00 | 46 | 1012.9 |
| 20260902190524 | 81 | 11 | 2.0 | 5.0 | 0.00 | 0.00 | 0.00 | 49 | 1012.9 |
| 20260902190033 | 81 | 65 | 2.0 | 8.0 | 0.00 | 0.00 | 0.00 | 48 | 1013.1 |
| 20260902185523 | 82 | 78 | 3.0 | 8.0 | 0.00 | 0.00 | 0.00 | 49 | 1013.2 |
| 20260902185024 | 81 | 355 | 3.0 | 6.0 | 0.00 | 0.00 | 0.00 | 51 | 1013.2 |
| 20260902184521 | 81 | 101 | 2.0 | 6.0 | 0.00 | 0.00 | 0.00 | 51 | 1013.1 |
| 20260902184020 | 81 | 61 | 2.0 | 9.0 | 0.00 | 0.00 | 0.00 | 51 | 1013.2 |
| 20260902183520 | 82 | 59 | 3.0 | 9.0 | 0.00 | 0.00 | 0.00 | 50 | 1013.2 |
| 20260902183019 | 81 | 331 | 4.0 | 7.0 | 0.00 | 0.00 | 0.00 | 51 | 1013.2 |
| 20260902182521 | 80 | 45 | 2.0 | 7.0 | 0.00 | 0.00 | 0.00 | 52 | 1013.3 |
| 20260902182017 | 80 | 51 | 3.0 | 8.0 | 0.00 | 0.00 | 0.00 | 52 | 1013.4 |
| 20260902181517 | 81 | 101 | 3.0 | 10.0 | 0.00 | 0.00 | 0.00 | 51 | 1013.4 |
| 20260902181016 | 80 | 92 | 5.0 | 10.0 | 0.00 | 0.00 | 0.00 | 52 | 1013.5 |
| 20260902180516 | 80 | 5 | 3.0 | 9.0 | 0.00 | 0.00 | 0.00 | 53 | 1013.5 |
| 20260902180022 | 80 | 340 | 2.0 | 9.0 | 0.00 | 0.00 | 0.00 | 52 | 1013.5 |
| 20260902175515 | 80 | 34 | 3.0 | 9.0 | 0.00 | 0.00 | 0.00 | 52 | 1013.5 |
| 20260902175014 | 80 | 59 | 3.0 | 6.0 | 0.00 | 0.00 | 0.00 | 51 | 1013.6 |
| 20260902174516 | 80 | 346 | 2.0 | 9.0 | 0.00 | 0.00 | 0.00 | 54 | 1013.5 |
| 20260902174012 | 79 | 86 | 4.0 | 9.0 | 0.00 | 0.00 | 0.00 | 53 | 1013.6 |
| 20260902173513 | 80 | 90 | 3.0 | 9.0 | 0.00 | 0.00 | 0.00 | 55 | 1013.6 |
| 20260902173012 | 79 | 92 | 3.0 | 9.0 | 0.00 | 0.00 | 0.00 | 54 | 1013.7 |
| 20260902172515 | 79 | 78 | 4.0 | 9.0 | 0.00 | 0.00 | 0.00 | 53 | 1013.7 |
| 20260902172010 | 80 | 42 | 5.0 | 9.0 | 0.00 | 0.00 | 0.00 | 54 | 1013.7 |
| 20260902171509 | 79 | 28 | 4.0 | 8.0 | 0.00 | 0.00 | 0.00 | 55 | 1013.7 |
| 20260902171008 | 79 | 96 | 3.0 | 11.0 | 0.00 | 0.00 | 0.00 | 55 | 1013.6 |
| 20260902170505 | 78 | 57 | 4.0 | 11.0 | 0.00 | 0.00 | 0.00 | 57 | 1013.6 |
| 20260902170005 | 77 | 61 | 3.0 | 7.0 | 0.00 | 0.00 | 0.00 | 60 | 1013.7 |
| 20260902165505 | 77 | 61 | 3.0 | 8.0 | 0.00 | 0.00 | 0.00 | 58 | 1013.7 |
| 20260902165005 | 77 | 53 | 3.0 | 8.0 | 0.00 | 0.00 | 0.00 | 57 | 1013.6 |
| 20260902164504 | 77 | 16 | 3.0 | 6.0 | 0.00 | 0.00 | 0.00 | 58 | 1013.7 |
| 20260902164004 | 78 | 38 | 4.0 | 8.0 | 0.00 | 0.00 | 0.00 | 58 | 1013.8 |
| 20260902163503 | 77 | 55 | 2.0 | 8.0 | 0.00 | 0.00 | 0.00 | 60 | 1013.8 |
| 20260902163002 | 77 | 61 | 3.0 | 6.0 | 0.00 | 0.00 | 0.00 | 59 | 1013.7 |
| 20260902162501 | 76 | 19 | 3.0 | 10.0 | 0.00 | 0.00 | 0.00 | 61 | 1013.7 |
| 20260902162001 | 76 | 14 | 3.0 | 10.0 | 0.00 | 0.00 | 0.00 | 60 | 1013.6 |
| 20260902161501 | 75 | 26 | 2.0 | 7.0 | 0.00 | 0.00 | 0.00 | 62 | 1013.7 |
| 20260902161001 | 75 | 69 | 3.0 | 8.0 | 0.00 | 0.00 | 0.00 | 61 | 1013.6 |
| 20260902160600 | 76 | 338 | 3.0 | 10.0 | 0.00 | 0.00 | 0.00 | 59 | 1013.6 |
| 20260902160059 | 77 | 33 | 3.0 | 10.0 | 0.00 | 0.00 | 0.00 | 61 | 1013.6 |
| 20260902155558 | 76 | 20 | 2.0 | 5.0 | 0.00 | 0.00 | 0.00 | 62 | 1013.5 |
| 20260902155056 | 75 | 74 | 1.0 | 6.0 | 0.00 | 0.00 | 0.00 | 63 | 1013.5 |
| 20260902154555 | 75 | 64 | 3.0 | 5.0 | 0.00 | 0.00 | 0.00 | 65 | 1013.6 |
| 20260902154054 | 74 | 45 | 1.0 | 5.0 | 0.00 | 0.00 | 0.00 | 64 | 1013.8 |
| 20260902153553 | 74 | 15 | 2.0 | 4.0 | 0.00 | 0.00 | 0.00 | 64 | 1013.7 |
| 20260902153053 | 74 | 61 | 1.0 | 4.0 | 0.00 | 0.00 | 0.00 | 66 | 1013.6 |
| 20260902152550 | 73 | 101 | 0.0 | 0.0 | 0.00 | 0.00 | 0.00 | 67 | 1013.7 |
| 20260902152051 | 72 | 99 | 0.0 | 0.0 | 0.00 | 0.00 | 0.00 | 68 | 1013.7 |
| 20260902151548 | 72 | 94 | 0.0 | 0.0 | 0.00 | 0.00 | 0.00 | 70 | 1013.8 |
| 20260902151046 | 72 | 94 | 0.0 | 0.0 | 0.00 | 0.00 | 0.00 | 69 | 1013.9 |
| 20260902150544 | 71 | 95 | 0.0 | 0.0 | 0.00 | 0.00 | 0.00 | 69 | 1014.0 |
| 20260902150044 | 71 | 95 | 0.0 | 0.0 | 0.00 | 0.00 | 0.00 | 70 | 1014.1 |
| 20260902145543 | 71 | 95 | 0.0 | 0.0 | 0.00 | 0.00 | 0.00 | 69 | 1014.1 |
| 20260902145043 | 71 | 95 | 0.0 | 0.0 | 0.00 | 0.00 | 0.00 | 71 | 1014.1 |
| 20260902144541 | 70 | 95 | 0.0 | 0.0 | 0.00 | 0.00 | 0.00 | 72 | 1014.1 |
| 20260902144040 | 70 | 95 | 0.0 | 0.0 | 0.00 | 0.00 | 0.00 | 72 | 1014.1 |
| 20260902143539 | 69 | 95 | 0.0 | 2.0 | 0.00 | 0.00 | 0.00 | 73 | 1014.1 |
| 20260902143038 | 69 | 95 | 0.0 | 3.0 | 0.00 | 0.00 | 0.00 | 73 | 1014.1 |
| 20260902142537 | 69 | 95 | 0.0 | 3.0 | 0.00 | 0.00 | 0.00 | 73 | 1014.1 |
| 20260902142036 | 68 | 105 | 1.0 | 3.0 | 0.00 | 0.00 | 0.00 | 73 | 1014.2 |
| 20260902141545 | 68 | 110 | 1.0 | 3.0 | 0.00 | 0.00 | 0.00 | 73 | 1014.2 |
| 20260902141035 | 68 | 104 | 0.0 | 3.0 | 0.00 | 0.00 | 0.00 | 74 | 1014.3 |
| 20260902140534 | 68 | 103 | 0.0 | 3.0 | 0.00 | 0.00 | 0.00 | 74 | 1014.3 |
| 20260902140034 | 67 | 104 | 0.0 | 3.0 | 0.00 | 0.00 | 0.00 | 74 | 1014.3 |
| 20260902135533 | 67 | 103 | 0.0 | 2.0 | 0.00 | 0.00 | 0.00 | 74 | 1014.4 |
| 20260902135032 | 67 | 103 | 1.0 | 3.0 | 0.00 | 0.00 | 0.00 | 74 | 1014.4 |
| 20260902134534 | 66 | 103 | 1.0 | 3.0 | 0.00 | 0.00 | 0.00 | 74 | 1014.5 |
| 20260902134031 | 66 | 105 | 0.0 | 3.0 | 0.00 | 0.00 | 0.00 | 74 | 1014.4 |
| 20260902133535 | 66 | 105 | 1.0 | 3.0 | 0.00 | 0.00 | 0.00 | 74 | 1014.3 |
| 20260902133032 | 66 | 81 | 1.0 | 4.0 | 0.00 | 0.00 | 0.00 | 74 | 1014.3 |
| 20260902132532 | 66 | 81 | 1.0 | 4.0 | 0.00 | 0.00 | 0.00 | 74 | 1014.3 |
| 20260902132029 | 66 | 55 | 1.0 | 4.0 | 0.00 | 0.00 | 0.00 | 74 | 1014.2 |
| 20260902131529 | 66 | 49 | 0.0 | 3.0 | 0.00 | 0.00 | 0.00 | 76 | 1014.2 |
| 20260902131029 | 65 | 49 | 1.0 | 3.0 | 0.00 | 0.00 | 0.00 | 77 | 1014.3 |
| 20260902130529 | 65 | 53 | 1.0 | 3.0 | 0.00 | 0.00 | 0.00 | 77 | 1014.2 |
| 20260902130033 | 64 | 19 | 1.0 | 3.0 | 0.00 | 0.00 | 0.00 | 79 | 1014.3 |
| 20260902125528 | 63 | 17 | 0.0 | 2.0 | 0.00 | 0.00 | 0.00 | 80 | 1014.4 |
| 20260902125028 | 63 | 12 | 0.0 | 4.0 | 0.00 | 0.00 | 0.00 | 81 | 1014.4 |
| 20260902124528 | 63 | 12 | 1.0 | 4.0 | 0.00 | 0.00 | 0.00 | 82 | 1014.2 |
| 20260902124026 | 62 | 14 | 0.0 | 4.0 | 0.00 | 0.00 | 0.00 | 82 | 1014.2 |
| 20260902123528 | 62 | 12 | 0.0 | 4.0 | 0.00 | 0.00 | 0.00 | 83 | 1014.0 |
| 20260902123025 | 62 | 12 | 2.0 | 3.0 | 0.00 | 0.00 | 0.00 | 83 | 1014.2 |
| 20260902122523 | 61 | 13 | 1.0 | 3.0 | 0.00 | 0.00 | 0.00 | 84 | 1014.0 |
| 20260902122023 | 61 | 5 | 0.0 | 1.0 | 0.00 | 0.00 | 0.00 | 84 | 1014.0 |
| 20260902121523 | 61 | 5 | 0.0 | 0.0 | 0.00 | 0.00 | 0.00 | 84 | 1014.1 |
| 20260902121022 | 61 | 5 | 0.0 | 2.0 | 0.00 | 0.00 | 0.00 | 84 | 1014.0 |
| 20260902120521 | 61 | 5 | 0.0 | 2.0 | 0.00 | 0.00 | 0.00 | 84 | 1014.0 |
| 20260902120019 | 61 | 5 | 0.0 | 3.0 | 0.00 | 0.00 | 0.00 | 84 | 1014.0 |
| 20260902115525 | 60 | 5 | 0.0 | 3.0 | 0.00 | 0.00 | 0.00 | 84 | 1013.9 |
| 20260902115018 | 60 | 5 | 1.0 | 3.0 | 0.00 | 0.00 | 0.00 | 84 | 1013.9 |
| 20260902114524 | 60 | 360 | 0.0 | 4.0 | 0.00 | 0.00 | 0.00 | 84 | 1013.9 |
| 20260902114021 | 60 | 360 | 1.0 | 4.0 | 0.00 | 0.00 | 0.00 | 84 | 1013.9 |
| 20260902113517 | 60 | 5 | 2.0 | 3.0 | 0.00 | 0.00 | 0.00 | 84 | 1013.9 |
| 20260902113018 | 60 | 350 | 1.0 | 3.0 | 0.00 | 0.00 | 0.00 | 84 | 1013.9 |
| 20260902112518 | 60 | 355 | 0.0 | 2.0 | 0.00 | 0.00 | 0.00 | 84 | 1013.9 |
| 20260902112017 | 60 | 355 | 0.0 | 2.0 | 0.00 | 0.00 | 0.00 | 84 | 1014.1 |
| 20260902111517 | 60 | 355 | 0.0 | 1.0 | 0.00 | 0.00 | 0.00 | 84 | 1014.1 |
| 20260902111016 | 60 | 355 | 0.0 | 1.0 | 0.00 | 0.00 | 0.00 | 84 | 1013.8 |
| 20260902110518 | 59 | 355 | 0.0 | 1.0 | 0.00 | 0.00 | 0.00 | 84 | 1013.9 |
| 20260902110016 | 60 | 355 | 0.0 | 2.0 | 0.00 | 0.00 | 0.00 | 84 | 1013.9 |
| 20260902105515 | 60 | 355 | 0.0 | 4.0 | 0.00 | 0.00 | 0.00 | 84 | 1013.9 |
| 20260902105019 | 60 | 355 | 0.0 | 4.0 | 0.00 | 0.00 | 0.00 | 84 | 1013.7 |
| 20260902104517 | 60 | 355 | 0.0 | 1.0 | 0.00 | 0.00 | 0.00 | 85 | 1013.6 |
| 20260902104015 | 60 | 355 | 0.0 | 3.0 | 0.00 | 0.00 | 0.00 | 85 | 1013.6 |
| 20260902103514 | 60 | 355 | 1.0 | 3.0 | 0.00 | 0.00 | 0.00 | 85 | 1013.6 |
| 20260902103015 | 60 | 355 | 1.0 | 3.0 | 0.00 | 0.00 | 0.00 | 85 | 1013.8 |
| 20260902102514 | 60 | 355 | 1.0 | 3.0 | 0.00 | 0.00 | 0.00 | 86 | 1013.8 |
| 20260902102015 | 60 | 311 | 1.0 | 3.0 | 0.00 | 0.00 | 0.00 | 86 | 1013.8 |
| 20260902101515 | 59 | 241 | 0.0 | 3.0 | 0.00 | 0.00 | 0.00 | 86 | 1014.0 |
| 20260902101014 | 59 | 241 | 0.0 | 3.0 | 0.00 | 0.00 | 0.00 | 86 | 1013.9 |
| 20260902100513 | 59 | 232 | 0.0 | 0.0 | 0.00 | 0.00 | 0.00 | 86 | 1014.0 |
| 20260902100015 | 59 | 232 | 0.0 | 0.0 | 0.00 | 0.00 | 0.00 | 86 | 1014.0 |
| 20260902095512 | 59 | 232 | 0.0 | 0.0 | 0.00 | 0.00 | 0.00 | 86 | 1014.1 |
| 20260902095011 | 59 | 232 | 0.0 | 1.0 | 0.00 | 0.00 | 0.00 | 86 | 1014.1 |
| 20260902094511 | 59 | 232 | 0.0 | 1.0 | 0.00 | 0.00 | 0.00 | 85 | 1014.1 |
| 20260902094011 | 59 | 232 | 0.0 | 0.0 | 0.00 | 0.00 | 0.00 | 85 | 1014.0 |
| 20260902093511 | 59 | 232 | 0.0 | 0.0 | 0.00 | 0.00 | 0.00 | 85 | 1014.0 |
| 20260902093010 | 60 | 232 | 0.0 | 1.0 | 0.00 | 0.00 | 0.00 | 85 | 1014.0 |
| 20260902092511 | 60 | 232 | 0.0 | 2.0 | 0.00 | 0.00 | 0.00 | 85 | 1013.9 |